Regional Weather Roundup
Issued by NWS

Home | Current Version | Previous Version | Graphics & Text | Print | Product List | Glossary On
Versions: 1 2 3 4 5 6 7 8 9 10 11 12 13 14 15 16 17 18 19 20 21 22 23 24 25 26 27 28 29 30 31 32 33 34 35 36 37 38 39 40 41 42 43 44 45 46 47 48 49 50
000
ASUS45 KPSR 022200
RWRAZ

ARIZONA HOURLY REGIONAL WEATHER ROUNDUP
NATIONAL WEATHER SERVICE PHOENIX AZ
300 PM MST SUN AUG 02 2015

NOTE: FAIR INDICATES FEW OR NO CLOUDS BELOW 12,000 FEET WITH NO
SIGNIFICANT WEATHER AND/OR OBSTRUCTIONS TO VISIBILITY.

AZZ001>003-036-022300-
NORTHWEST ARIZONA

CITY           SKY/WX    TMP DP  RH WIND       PRES   REMARKS
BULLHEAD CITY  MOSUNNY  108  50  14 MISG      29.74F HX 104
KINGMAN        SUNNY     97  44  16 NW9G20    29.97F
$$

AZZ004>008-015-016-018-022300-
NORTH CENTRAL ARIZONA

CITY           SKY/WX    TMP DP  RH WIND       PRES   REMARKS
GRAND CANYON   CLOUDY    65  59  81 NE7       30.21F
WILLIAMS       CLOUDY    64  55  72 S6        30.29S
PRESCOTT       PTSUNNY   82  54  37 N14G21    30.08F THUNDER
FLAGSTAFF      NOT AVBL
PAYSON         MOSUNNY   88  52  29 SW9G22    30.10F
PAGE           PTSUNNY   79  61  53 VRB5      30.04F
$$

AZZ009>014-017-022300-
NORTHEAST ARIZONA

CITY           SKY/WX    TMP DP  RH WIND       PRES   REMARKS
WINSLOW        PTSUNNY   87  55  33 NW28G36   30.05R
SAINT JOHNS    SUNNY     85  51  31 W17G24    30.10F
SHOW LOW       MOSUNNY   77  48  36 SW17      30.19F
$$

AZZ023-022300-
GREATER PHOENIX AREA

CITY           SKY/WX    TMP DP  RH WIND       PRES   REMARKS
PHOENIX        MOSUNNY  107  54  17 SW14      29.75F HX 105
GLENDALE       MOSUNNY  106  54  17 SE3       29.76F HX 104
DEER VALLEY    SUNNY    103  54  19 SW10G20   29.77F HX 101
SCOTTSDALE     SUNNY    104  52  17 W14G23    29.80F HX 101
MESA-GATEWAY   MOSUNNY  102  55  21 SW10G16   29.82F HX 101
CHANDLER       MOSUNNY  104  54  18 SW12      29.78F HX 102
$$

AZZ027-028-022300-
SOUTHWEST MARICOPA COUNTY AND PINAL COUNTY

CITY           SKY/WX    TMP DP  RH WIND       PRES   REMARKS
CASA GRANDE    SUNNY    104  55  20 W8G17     29.79F HX 103
$$

AZZ503-504-507>509-022300-
SOUTHEAST ARIZONA

CITY           SKY/WX    TMP DP  RH WIND       PRES   REMARKS
TUCSON         SUNNY    100  51  19 NW5       29.90F
DAVIS-MONTHAN  SUNNY     98  55  23 N3G18     29.89F
RYAN FIELD     MOSUNNY  100  54  20 NW7       29.89F
NOGALES        PTSUNNY   91  59  33 SW10      30.01F
SIERRA VISTA   PTSUNNY   82  59  46 W15       30.08S
SAFFORD        MOSUNNY   95  53  24 VRB3      29.92F
$$

AZZ020-021-025-026-031-022300-
SOUTHWEST ARIZONA

CITY           SKY/WX    TMP DP  RH WIND       PRES   REMARKS
YUMA           NOT AVBL
$$

CAZ031-033-041-043-047-048-061-022300-
SOUTHERN CALIFORNIA

CITY           SKY/WX    TMP DP  RH WIND       PRES   REMARKS
DOWNTOWN L.A.  SUNNY     80  64  58 W6        29.86F
L.A. AIRPORT   MOSUNNY   75  65  70 W12       29.88F
SAN DIEGO      MOSUNNY   77  63  61 W13       29.90F
BURBANK        SUNNY     89  63  41 S10       29.86F
ONTARIO        MOSUNNY   91  60  35 SW15      29.86F
RIVERSIDE      SUNNY     92  61  35 W7G16     29.85F
PALM SPRINGS   SUNNY    112  46  11 NE7       29.73F HX 107
EL CENTRO NAS  SUNNY    109  42  10 CALM      29.70F HX 103
IMPERIAL       SUNNY    109  48  13 SE3       29.68F HX 105
BLYTHE         MOSUNNY  110  51  14 S10G18    29.71F HX 107
$$

NVZ020-UTZ003-022300-
SOUTHERN NEVADA-UTAH

CITY           SKY/WX    TMP DP  RH WIND       PRES   REMARKS
LAS VEGAS      NOT AVBL
SALT LAKE CITY CLOUDY    89  34  14 S6        29.96R
$$

NMZ009-TXZ055-022300-
NEW MEXICO-WEST TEXAS

CITY           SKY/WX    TMP DP  RH WIND       PRES   REMARKS
ALBUQUERQUE    CLOUDY    80  55  42 NW15      30.13R
EL PASO        MOSUNNY   94  54  25 S9        29.96F
$$


........................KEY........................
SKY/WX - SKY CONDITION/WEATHER
TMP    - TEMPERATURE IN FAHRENHEIT
DP     - DEW POINT IN FAHRENHEIT
RH     - RELATIVE HUMIDITY IN PERCENT
WIND   - DIRECTION AND SPEED IN MILES PER HOUR (MPH)
VRB    - VARIABLE WIND DIRECTION
PRES   - MEAN SEA LEVEL PRESSURE IN INCHES OF MERCURY
         F - FALLING PRESSURE   R - RISING PRESSURE
         S - STEADY PRESSURE
VSB    - VISIBILITY IN MILES
HX     - HEAT INDEX IN FAHRENHEIT
WCI    - WIND CHILL INDEX IN FAHRENHEIT
TC     - TEMPERATURE IN CELSIUS WHICH IS ALSO KNOWN AS
         TEMPERATURE IN CENTIGRADE
AFB    - AIR FORCE BASE
         LUKE AFB IS LUKE AIR FORCE BASE
         DAVIS-MONTHAN IS DAVIS-MONTHAN AIR FORCE BASE
NAS    - NAVAL AIR STATION
         EL CENTRO NAS IS EL CENTRO NAVAL AIR STATION
N/A    - NOT AVAILABLE



USA.gov is the U.S. government's official web portal to all federal, state and local government web resources and services.